Wind_Speed
14 14 12 9 6 2 3 7 11 11 13 16 14 14 14 15 15 13 12 12 12 11 9 9 9 8 9 10 11 11 13 11 9 6 10 5 5 6 7 8 6 6 8
12 13 14 11 8 3 1 6 13 13 13 14 14 15 16 16 13 12 12 12 12 11 11 12 11 11 11 11 12 16 14 11 9 8 6 4 4 7 8 7 6 7 8
17 15 12 12 10 5 1 4 13 15 14 13 14 15 17 16 13 12 12 12 11 11 12 13 12 13 12 13 15 13 11 11 10 10 9 6 6 8 8 6 7 8 9
14 13 13 13 11 7 3 4 11 13 15 13 15 15 16 16 14 12 13 14 14 13 14 13 13 13 13 14 15 14 11 11 12 11 9 8 9 9 9 8 9 10 11
9 13 15 15 13 9 8 9 11 12 13 13 13 15 17 16 15 15 14 15 16 16 15 14 13 12 14 15 15 13 13 13 12 10 9 9 10 10 9 9 11 11 12
16 15 15 13 11 11 15 14 11 11 11 13 13 15 18 18 17 17 16 16 17 16 16 14 13 13 14 14 15 14 14 14 13 13 12 11 12 10 10 12 13 13 12
16 16 15 14 17 19 18 14 10 9 10 11 13 15 17 19 20 18 17 17 18 17 17 15 13 14 14 11 12 15 17 17 15 14 13 14 14 14 15 14 14 13 12
15 16 16 17 18 16 16 12 11 9 10 8 11 14 15 17 19 19 18 17 18 18 18 16 15 17 15 11 11 15 17 18 17 15 15 15 17 15 16 15 15 15 14
15 16 17 17 17 16 16 14 13 11 10 8 10 13 14 14 16 18 19 18 18 18 18 17 17 18 17 16 14 15 13 15 16 17 16 19 19 18 17 16 16 15 13
21 20 22 23 22 20 19 16 15 12 11 9 9 12 13 14 15 16 18 18 17 18 19 19 19 19 21 17 17 18 18 19 18 18 18 20 20 18 17 17 16 16 13
23 25 24 23 21 19 21 20 17 15 13 10 9 11 13 13 14 16 16 17 17 20 20 21 20 22 21 21 21 14 14 12 18 19 20 20 18 18 19 19 17 16 13
23 23 22 22 21 20 22 22 20 18 15 13 10 11 12 13 14 15 17 18 19 20 21 22 23 25 24 23 20 18 17 19 19 23 21 20 19 19 20 20 18 15 13
22 24 23 23 24 23 25 25 23 21 17 15 12 11 11 13 12 14 17 19 20 21 24 24 25 27 26 25 22 21 19 21 22 25 25 22 20 21 23 21 18 16 15
25 23 23 23 24 25 25 28 27 25 21 18 14 12 11 11 11 12 15 18 21 22 24 24 25 24 26 24 27 23 24 20 26 29 26 23 22 23 26 22 19 18 16
31 25 25 27 26 29 31 30 32 29 26 22 17 13 11 10 10 12 14 17 21 22 24 24 27 26 25 26 28 24 21 32 32 33 26 23 25 25 25 22 21 20 18
32 31 29 29 27 28 29 29 28 32 30 26 21 16 13 12 10 10 13 17 19 21 24 24 26 25 26 29 30 25 27 27 31 27 26 26 26 28 27 26 23 20 18
38 33 33 30 31 30 29 29 30 28 34 30 25 20 17 14 12 11 13 18 18 20 22 24 25 24 29 32 34 20 24 21 29 26 26 26 28 26 26 24 24 22 19
48 47 41 35 35 33 30 30 28 26 31 33 29 24 21 17 15 14 14 17 18 19 21 23 26 26 25 31 27 25 24 20 15 27 31 29 30 27 24 26 25 23 21
45 52 52 49 44 38 35 37 32 32 28 32 34 28 25 22 18 16 15 16 19 19 19 21 25 26 26 25 27 25 28 21 21 23 33 31 30 28 25 26 26 23 21
33 40 42 49 49 44 40 38 37 34 31 28 33 32 30 27 22 19 17 16 19 18 17 19 22 23 27 25 28 29 34 24 25 25 35 34 32 32 24 23 24 24 23
35 36 39 43 39 39 44 46 42 42 33 31 34 34 34 32 28 23 19 17 18 17 16 18 21 23 26 28 26 26 30 23 31 28 37 35 33 31 30 24 22 24 23
41 36 36 40 41 42 38 39 45 40 38 33 33 34 31 31 31 26 22 20 19 18 18 20 21 24 26 28 30 29 31 27 22 30 39 39 34 33 28 25 23 25 23
47 44 41 37 39 44 41 38 41 45 43 37 34 32 28 30 31 28 25 22 20 19 18 20 24 26 27 27 31 28 30 29 21 27 37 42 37 37 29 26 26 25 25
40 50 49 46 39 35 41 43 41 45 44 41 34 24 22 26 31 29 27 23 22 22 21 21 25 28 28 30 30 31 30 28 30 25 37 39 40 40 30 27 27 26 26
31 42 45 50 49 44 39 33 38 40 41 37 34 28 26 27 29 31 27 23 24 23 22 23 25 27 29 30 31 33 32 27 29 27 39 48 45 40 29 27 27 27 27
29 30 38 41 42 45 43 35 36 37 43 36 34 32 25 28 31 31 27 24 25 26 21 24 25 25 28 30 32 33 33 33 31 35 37 45 38 36 29 26 28 27 27
Wind_Direction
208 189 195 205 197 195 354 346 331 304 271 268 250 256 254 267 277 266 245 232 228 227 228 223 219 230 231 229 220 199 202 213 224 211 181 199 204 180 158 158 149 142 144
210 207 197 217 223 199 50 349 328 318 284 261 252 258 257 269 266 264 245 232 219 223 226 224 222 222 230 225 219 217 214 219 228 213 221 230 199 182 166 158 146 149 156
195 197 203 224 231 214 168 342 322 318 300 268 249 257 256 274 267 266 249 237 224 215 214 225 228 231 227 214 204 199 213 228 232 225 238 235 205 187 168 158 162 162 166
199 209 219 235 247 238 256 326 318 319 314 284 255 250 252 268 264 265 247 238 232 226 224 230 225 224 221 212 206 217 221 227 229 226 225 226 209 189 176 174 175 170 174
236 220 226 230 245 258 282 305 305 316 314 305 268 247 251 260 257 257 243 232 233 232 234 236 231 223 224 220 224 226 224 221 222 222 223 220 201 191 182 187 180 177 176
273 215 218 231 242 267 286 290 289 308 308 311 282 258 251 252 250 255 245 232 232 235 241 244 241 232 224 231 234 230 226 222 219 225 223 214 197 194 192 191 188 185 185
259 225 230 253 271 278 282 271 278 290 301 305 285 267 257 251 250 253 248 239 239 239 244 244 238 230 227 231 250 249 235 233 234 230 220 205 201 196 194 197 188 191 190
249 252 257 269 269 265 276 258 276 267 287 302 291 271 263 256 253 250 249 245 244 243 245 246 243 243 242 247 255 269 251 241 236 231 220 204 204 203 200 195 195 193 193
252 258 283 289 287 272 264 247 257 251 261 275 288 272 266 261 256 252 251 249 245 243 245 245 243 237 252 253 239 246 262 260 227 222 211 206 207 203 200 199 198 196 197
259 268 276 279 283 280 263 250 246 244 255 259 273 272 264 260 257 255 253 250 245 244 246 243 239 247 239 245 225 247 266 236 231 215 206 205 204 201 203 201 201 203 207
253 260 265 258 259 278 269 248 236 239 246 252 256 268 262 261 260 258 255 249 247 247 248 244 241 241 256 242 238 239 229 221 226 231 206 204 202 203 201 202 208 211 219
258 258 247 245 256 270 259 250 238 234 239 244 245 256 264 261 264 265 260 253 249 247 247 248 238 243 242 242 239 258 244 245 218 225 210 209 208 206 202 208 210 220 231
257 256 244 251 251 254 252 254 244 238 235 244 245 250 265 264 268 272 270 267 263 252 250 247 244 241 246 251 258 260 238 223 207 235 218 211 214 209 206 212 221 231 242
261 259 257 252 247 256 251 249 247 242 239 240 242 247 260 266 272 279 279 272 263 255 255 253 249 245 248 252 252 238 239 248 216 221 225 221 220 217 213 216 230 239 249
250 253 254 258 253 251 259 261 248 241 242 240 242 242 251 265 272 284 290 283 269 258 256 252 250 236 246 250 256 249 266 277 238 213 229 223 211 213 220 228 240 248 248
250 247 251 256 257 261 263 259 248 239 239 241 243 243 244 260 272 287 297 293 279 263 256 252 243 243 250 251 251 248 278 253 210 208 219 220 214 215 228 233 239 245 247
249 250 245 246 252 254 257 261 244 235 233 238 243 246 244 253 264 280 297 297 288 268 257 247 238 239 255 250 256 260 273 235 213 208 219 224 224 220 232 236 241 244 242
252 250 247 244 246 247 248 254 258 239 233 235 239 244 249 249 259 270 289 297 294 273 259 246 243 246 279 254 253 252 257 234 236 229 215 222 230 232 235 247 240 239 234
253 252 251 246 245 246 244 250 252 243 236 233 235 241 251 252 258 266 278 296 298 279 262 252 246 251 260 252 249 244 248 250 257 251 229 214 229 237 243 244 238 236 230
259 246 248 243 241 243 246 245 247 241 231 231 234 237 247 253 258 262 271 292 296 279 267 262 256 249 248 248 253 244 250 239 272 268 228 221 224 235 237 236 231 229 228
254 258 251 242 234 239 245 241 243 244 232 232 232 233 242 249 255 261 266 280 291 281 270 263 256 250 250 243 247 250 246 250 269 268 223 220 221 232 235 238 230 226 226
248 249 246 242 236 237 243 244 242 244 241 234 234 233 240 247 250 256 263 275 285 283 271 267 264 256 251 245 240 243 238 250 262 239 219 222 220 231 228 235 234 231 226
245 243 242 237 242 242 240 242 239 236 240 234 229 229 233 243 244 251 257 268 279 284 274 266 263 258 251 246 244 236 247 254 279 237 223 223 223 223 229 234 233 230 227
257 242 242 241 238 239 242 239 242 239 236 232 234 225 241 257 246 246 254 265 275 284 277 269 263 259 247 245 244 240 251 253 255 254 215 216 212 223 229 232 229 229 228
257 240 240 249 244 238 237 246 243 236 233 240 230 231 244 259 239 241 252 261 273 280 279 272 262 253 244 243 243 244 246 257 249 261 226 217 224 223 228 225 226 228 228
255 241 244 243 235 234 239 245 235 233 231 234 232 235 249 247 232 240 250 262 273 277 276 270 257 240 240 242 243 243 244 253 257 255 232 224 222 222 223 229 226 228 228
Height
3129 3130 3131 3133 3135 3137 3138 3138 3139 3139 3139 3139 3139 3139 3139 3139 3139 3139 3140 3141 3142 3143 3144 3145 3145 3145 3146 3147 3148 3150 3151 3151 3153 3154 3154 3155 3156 3155 3157 3158 3159 3159 3160
3128 3128 3130 3132 3134 3136 3137 3137 3138 3137 3137 3137 3138 3137 3137 3138 3138 3138 3138 3139 3141 3142 3143 3143 3144 3144 3145 3146 3147 3149 3150 3152 3153 3154 3155 3155 3156 3156 3157 3159 3159 3160 3162
3126 3127 3129 3131 3133 3134 3135 3136 3137 3136 3135 3135 3136 3136 3136 3136 3136 3136 3137 3138 3140 3141 3142 3141 3143 3143 3144 3145 3147 3148 3150 3151 3152 3153 3154 3156 3156 3156 3157 3158 3159 3161 3162
3125 3126 3128 3130 3131 3133 3134 3134 3135 3135 3134 3133 3133 3134 3135 3135 3136 3136 3136 3137 3138 3139 3139 3141 3141 3142 3143 3145 3146 3148 3149 3150 3151 3151 3152 3154 3154 3155 3156 3157 3159 3161 3163
3123 3124 3125 3127 3129 3130 3132 3132 3133 3133 3133 3132 3131 3132 3133 3134 3135 3135 3136 3136 3137 3138 3138 3140 3140 3141 3143 3145 3146 3148 3148 3149 3150 3150 3152 3152 3154 3155 3156 3158 3159 3161 3163
3120 3123 3124 3125 3126 3128 3129 3130 3131 3131 3131 3131 3130 3130 3131 3132 3133 3134 3134 3135 3135 3137 3137 3139 3140 3140 3142 3144 3145 3147 3148 3149 3149 3150 3151 3151 3152 3155 3156 3157 3159 3160 3162
3118 3120 3122 3124 3125 3125 3127 3127 3128 3128 3129 3129 3128 3128 3129 3129 3131 3132 3133 3134 3135 3135 3136 3138 3139 3139 3140 3142 3144 3146 3147 3148 3148 3149 3149 3150 3151 3153 3155 3158 3159 3160 3162
3116 3118 3120 3122 3122 3122 3123 3125 3125 3126 3127 3127 3126 3126 3127 3127 3128 3129 3131 3132 3133 3134 3134 3136 3138 3138 3139 3141 3143 3145 3145 3145 3146 3147 3148 3150 3150 3152 3154 3156 3158 3160 3161
3114 3116 3117 3119 3119 3121 3121 3122 3123 3123 3124 3124 3124 3124 3125 3125 3125 3126 3128 3129 3130 3131 3133 3134 3135 3136 3137 3139 3141 3143 3143 3144 3144 3145 3147 3149 3150 3151 3153 3155 3157 3159 3160
3111 3112 3114 3115 3117 3118 3119 3119 3120 3121 3122 3122 3122 3122 3123 3123 3123 3124 3125 3127 3128 3129 3131 3131 3132 3134 3135 3136 3138 3140 3139 3140 3143 3143 3145 3147 3148 3150 3152 3154 3156 3159 3160
3108 3109 3110 3111 3113 3114 3115 3117 3117 3118 3119 3119 3119 3120 3120 3120 3121 3122 3123 3124 3125 3126 3128 3129 3130 3129 3132 3132 3134 3135 3137 3139 3142 3143 3144 3146 3148 3149 3150 3153 3154 3158 3159
3104 3106 3107 3108 3109 3110 3112 3114 3115 3116 3116 3117 3117 3117 3118 3118 3118 3119 3119 3120 3122 3123 3124 3125 3126 3126 3127 3129 3131 3132 3132 3134 3139 3142 3142 3144 3146 3147 3149 3151 3154 3156 3158
3102 3102 3104 3105 3105 3106 3108 3110 3111 3112 3113 3114 3114 3115 3115 3115 3115 3116 3116 3117 3119 3119 3120 3122 3122 3123 3125 3126 3127 3129 3130 3131 3134 3139 3140 3142 3145 3146 3148 3149 3152 3154 3156
3097 3098 3099 3100 3101 3102 3103 3105 3107 3109 3109 3110 3110 3111 3112 3112 3112 3113 3113 3113 3115 3116 3117 3118 3118 3120 3121 3122 3122 3123 3124 3127 3128 3134 3138 3140 3142 3143 3146 3148 3150 3152 3153
3089 3092 3094 3094 3096 3097 3097 3099 3101 3104 3106 3106 3107 3107 3108 3109 3109 3110 3109 3109 3110 3111 3111 3113 3113 3115 3117 3118 3117 3118 3118 3121 3121 3127 3132 3136 3139 3140 3143 3146 3147 3149 3151
3083 3085 3087 3088 3089 3090 3091 3093 3095 3098 3101 3102 3103 3103 3104 3105 3106 3106 3105 3106 3106 3106 3107 3109 3109 3111 3113 3113 3114 3113 3114 3115 3115 3121 3127 3133 3136 3137 3140 3142 3144 3146 3147
3075 3077 3078 3081 3083 3084 3086 3087 3088 3090 3094 3097 3099 3100 3100 3102 3102 3102 3102 3103 3101 3101 3102 3104 3105 3106 3108 3108 3109 3108 3110 3109 3114 3117 3123 3128 3131 3133 3136 3139 3141 3143 3144
3067 3067 3070 3073 3075 3077 3079 3081 3084 3085 3088 3091 3093 3095 3096 3098 3098 3098 3099 3100 3097 3097 3097 3099 3100 3101 3102 3102 3104 3106 3107 3108 3111 3114 3117 3123 3127 3131 3133 3135 3136 3139 3141
3056 3057 3058 3062 3064 3068 3071 3073 3077 3080 3081 3084 3086 3089 3091 3093 3093 3094 3095 3095 3093 3093 3093 3094 3096 3097 3097 3099 3100 3101 3104 3105 3107 3109 3113 3117 3123 3126 3129 3131 3133 3135 3137
3045 3046 3047 3050 3054 3060 3064 3065 3068 3072 3074 3077 3080 3083 3086 3088 3089 3090 3091 3090 3090 3089 3088 3089 3090 3092 3093 3095 3095 3097 3099 3102 3104 3104 3107 3111 3118 3121 3124 3126 3128 3131 3134
3037 3037 3039 3040 3044 3050 3052 3056 3060 3063 3068 3070 3072 3076 3080 3082 3084 3085 3086 3086 3086 3085 3084 3084 3085 3087 3088 3090 3091 3092 3095 3096 3098 3098 3101 3107 3112 3116 3120 3122 3123 3127 3130
3027 3030 3030 3032 3036 3040 3044 3049 3053 3058 3061 3064 3066 3069 3073 3077 3078 3079 3080 3081 3081 3081 3079 3080 3080 3081 3083 3085 3086 3090 3089 3093 3092 3090 3095 3101 3106 3111 3114 3117 3120 3122 3126
3014 3018 3021 3024 3027 3032 3037 3041 3043 3048 3052 3056 3058 3061 3066 3070 3071 3074 3075 3075 3075 3075 3075 3075 3076 3077 3078 3080 3082 3085 3085 3085 3087 3086 3090 3095 3100 3105 3109 3112 3116 3118 3121
3004 3007 3011 3015 3019 3024 3028 3030 3034 3040 3044 3049 3054 3057 3060 3063 3065 3068 3070 3070 3069 3069 3069 3069 3070 3071 3073 3074 3077 3078 3080 3082 3082 3083 3084 3090 3093 3099 3104 3107 3111 3114 3117
2993 2996 3001 3005 3011 3017 3020 3023 3027 3032 3039 3043 3047 3049 3053 3056 3058 3062 3064 3064 3064 3063 3062 3063 3064 3065 3067 3069 3071 3073 3075 3076 3077 3079 3078 3083 3087 3093 3099 3102 3106 3109 3113
2987 2988 2991 2995 3000 3007 3013 3015 3018 3024 3031 3036 3040 3043 3046 3049 3053 3056 3057 3057 3057 3057 3055 3057 3058 3059 3061 3063 3065 3066 3068 3070 3073 3073 3076 3079 3083 3088 3094 3097 3101 3104 3107